Uitslag Mr T sporta triathlon Gent top 3

# Naam Totaal
1 (46) Rombaut Amber 01:10:30 79.71
2 (50) Scheerens Elise 01:10:50 78.28
3 (53) Suys Mieke 01:11:17 77.97
4 (67) Imbo Kristel 01:12:43 76.99
5 (71) Meire Kathleen 01:13:24 76.52
6 (76) Van Hoecke Ann-sophie 01:13:48 76.24
7 (86) Vandevelde Liesbeth 01:14:21 75.86
8 (87) Torbeyns Fien 01:14:23 75.84
9 (95) De Vreese Elke 01:14:55 75.48
10 (96) Verhaegen Charlotte 01:15:02 75.40
11 (125) Van Leuven Sharon 01:16:33 74.35
12 (126) Cappaert -paulus Lieve 01:16:35 74.33
13 (130) Beynaerts Jessy 01:16:51 74.15
14 (161) De Waele Valerie 01:18:38 72.92
15 (174) Aerts Kim 01:19:36 72.26
16 (177) Tempelaere Tineke 01:19:43 72.18
17 (180) Van De Kerckhove Annelore 01:19:55 72.04
18 (181) Plaetinck Silke 01:19:56 72.03
19 (184) De Wit Leen 01:20:06 71.91
20 (187) Torbeyns Tine 01:20:23 71.72
21 (188) Lossie Lynn 01:20:26 71.69
22 (194) Meynen Ninke 01:20:48 71.43
23 (199) Naessens Hanne 01:20:54 71.36
24 (203) Van Gucht Hanneke 01:21:05 71.24
25 (207) Bex Tine 01:21:09 71.19
26 (223) Vandeplassche Lie 01:21:54 70.68
27 (225) Weyts Annelies 01:21:58 70.63
28 (226) Willems Sarah 01:21:58 70.63
29 (238) Verloigne Maite 01:22:25 70.32
30 (241) Costermans Ines 01:22:35 70.21
31 (246) De Haes Tinne 01:22:45 70.09
32 (252) Peeters Bente 01:23:07 69.84
33 (255) Goris Els 01:23:15 69.75
34 (256) Cappuyns Ann 01:23:15 69.75
35 (257) Vandercruyssen Celine 01:23:17 69.73
36 (261) Smet Sarah 01:23:30 69.58
37 (262) Karnas An 01:23:34 69.53
38 (269) clement marie-laure 01:23:56 69.28
39 (270) Verheecke Margaux 01:24:02 69.21
40 (277) Haenebalcke Laure 01:24:17 69.04
41 (279) Defeyter Ine 01:24:22 68.98
42 (282) De Meulemeester Kathleen 01:24:33 68.86
43 (283) Farr Sarah 01:24:35 68.83
44 (288) Bradt Sofie 01:24:48 68.68
45 (290) Rooryck Jasmine 01:24:50 68.66
46 (291) Druon Deborah 01:24:52 68.64
47 (298) Mertens Evelien 01:25:04 68.50
48 (301) Tack Charlotte 01:25:14 64.82
49 (304) Declerck Sofie 01:25:19 68.33
50 (305) De Ryst Jana 01:25:20 68.32
51 (311) Depoortere Marie 01:25:44 68.04
52 (316) Vandenborre Jolien 01:26:04 67.81
53 (317) Balliu Kaya 01:26:07 67.78
54 (321) Beirnaert Kathleen 01:26:16 67.68
55 (322) Persoon Greet 01:26:17 67.67
56 (324) De Corte Els 01:26:19 67.64
57 (325) Leunis Nena 01:26:25 67.57
58 (327) Neyt Sara 01:26:26 67.56
59 (336) Popelier Valerie 01:26:56 67.22
60 (337) Wittouck Hermien 01:26:56 67.22
61 (341) D'haene Mieke 01:27:04 67.13
62 (342) Ghyselinck Eva 01:27:04 67.13
63 (343) Piessen Kim 01:27:06 67.10
64 (346) Wiels Lieselotte 01:27:21 66.93
65 (351) De Bruycker Helena 01:27:33 66.80
66 (353) Nouwens Aukje 01:27:40 66.72
67 (354) Van Uytfang Femke 01:27:41 66.70
68 (355) Versprille Niki 01:27:42 66.69
69 (357) Van Vlierberghe Leen 01:27:45 66.66
70 (361) Bert Kristel 01:27:54 66.55
71 (373) Jacob Lica 01:28:30 66.14
72 (375) Huylebroek Julie 01:28:33 66.11
73 (378) De Meyer Sarah 01:28:39 66.04
74 (379) Van Hulle Cindy 01:28:43 65.99
75 (381) Rijckaert Sandra 01:28:52 65.89
76 (382) Van Esbroeck Femke 01:28:53 65.88
77 (384) Defeyter Lisa 01:28:57 65.83
78 (385) Batenburg Myrthe 01:29:06 65.73
79 (388) Vanhecke Mieke 01:29:15 65.63
80 (389) Verdonck Joyce 01:29:18 65.59
81 (390) Docquir Liana 01:29:31 65.44
82 (391) Veracx Aline 01:29:35 65.40
83 (394) Delanote Hanne 01:29:41 65.33
84 (400) Vervisch Mieke 01:30:16 64.93
85 (408) Willemyns Ina 01:30:43 64.62
86 (409) Baecke Eveline 01:30:48 64.56
87 (411) Agache Evelien 01:30:52 64.52
88 (413) De Moor Audrey 01:30:58 64.45
89 (414) Hubrechts Goedele 01:31:02 64.40
90 (416) Brauc Sigrid 01:31:05 64.37
91 (417) Vermeir Karen 01:31:08 64.33
92 (418) Vanwambeke Miek 01:31:09 64.32
93 (419) Buyl Aafke 01:31:11 64.30
94 (421) Goidts Anne 01:31:13 64.28
95 (422) Timmermans Lore 01:31:14 64.26
96 (423) Bonte Mieke 01:31:26 64.13
97 (424) Van Herreweghe Sofie 01:31:26 64.13
98 (425) Lebbe Patricia 01:31:33 64.05
99 (427) De Vos Krista 01:31:49 63.86
100 (433) Van Osselaer Josefien 01:32:01 63.73
101 (437) Delobelle Axelle 01:32:21 63.50
102 (438) Vandemoortele Jolien 01:32:22 63.49
103 (439) Peeleman Dorien 01:32:25 63.45
104 (443) Van Kerrebroeck Sandy 01:32:41 63.27
105 (446) Neckebroek Julie 01:33:00 63.05
106 (449) Gysens Linda 01:33:17 62.86
107 (450) Van De Sijpe Joke 01:33:17 62.86
108 (453) Vergauwe Sien 01:33:23 62.79
109 (454) Van Rumst Thea 01:33:30 62.71
110 (455) Durnez Miet 01:33:39 62.60
111 (456) Everaert Nel 01:33:40 62.59
112 (457) Raymaekers Rien 01:33:41 62.58
113 (459) Bonte Anja 01:33:48 62.50
114 (462) Verraes Natalie 01:33:59 62.38
115 (463) Gillis Faye 01:33:59 62.38
116 (466) Hermans Regine 01:34:11 62.24
117 (469) Joos Kathleen 01:34:37 61.94
118 (470) Huyghe Anneleen 01:34:46 61.84
119 (472) De Meester An 01:34:53 61.76
120 (475) Muylaert Katherine 01:35:07 61.60
121 (476) Vermassen Nathalie 01:35:07 61.60
122 (478) Van Den Eijnden Christel 01:35:11 61.55
123 (480) Robesyn Valérie 01:35:14 61.52
124 (481) D'hooge Elizabet 01:35:14 61.52
125 (484) Caekelbergh Karin 01:35:25 61.39
126 (485) Herman Roosmarijn 01:35:26 61.38
127 (488) Verhelst Gudrun 01:35:41 61.21
128 (489) Degrendel Sofie 01:36:03 60.96
129 (491) Dejonckheere Babette 01:36:16 60.81
130 (494) Vangampelaere Valerie 01:36:35 60.59
131 (495) Decrans Annelies 01:36:41 60.52
132 (496) Haentjens Evelien 01:36:46 60.46
133 (499) Depoorter Sabine 01:37:16 60.12
134 (503) Van Summeren Maycke 01:37:44 59.80
135 (506) Durnez Lies 01:37:52 59.71
136 (507) De Brouwere Annelies 01:37:54 59.68
137 (509) Verlinde Valerie 01:38:18 59.41
138 (511) Van Thuyne Marijke 01:38:33 59.24
139 (512) D'heygere Sofie 01:38:36 59.20
140 (515) Ureel Kaat 01:39:12 58.79
141 (516) Van Eeghem Pascale 01:39:14 58.77
142 (518) Van Den Bergh Julie 01:39:30 58.58
143 (519) Panis Wendy 01:39:53 58.32
144 (520) Weckx Ann 01:40:00 58.24
145 (521) De Vos Annelien 01:40:03 58.21
146 (522) Vancraynest Veerle 01:40:03 58.21
147 (523) Van Huffel Veerle 01:40:05 58.18
148 (525) De Schutter Eline 01:40:22 57.99
149 (526) De Bruecker Greet 01:40:28 57.92
150 (527) Naessens Miek 01:40:28 57.92
151 (529) De Backer Lien 01:40:31 57.89
152 (530) Symoens Nadia 01:40:40 57.78
153 (531) Vercruysse Veronique 01:40:44 57.74
154 (532) Vandewalle Tania 01:40:46 57.71
155 (533) Allonsius Kim 01:40:47 57.70
156 (535) Naeye Nadia 01:40:50 57.67
157 (537) Vandenbulcke Lien 01:41:16 57.37
158 (538) Beck Ilse 01:41:22 57.30
159 (539) Debucquoy Aude 01:41:24 57.28
160 (540) Van Assche Elke 01:41:27 57.24
161 (541) Legrand Mélanie 01:41:32 57.19
162 (542) Moins Sylvia 01:41:44 57.05
163 (545) De Ridder Sofie 01:41:57 56.90
164 (546) Bauters Janna 01:41:58 56.89
165 (547) Sinia Isabelle 01:42:17 56.67
166 (549) Pleier Cordula 01:42:33 56.49
167 (550) Vandamme Marian 01:42:45 56.35
168 (551) Decoster Lore 01:42:55 56.24
169 (552) Landuyt Nathalie 01:43:01 56.17
170 (557) Bostoen Evelien 01:43:33 55.80
171 (559) Robben Karen 01:44:02 55.47
172 (560) Viaene Anne 01:44:04 55.45
173 (561) Van Der Stichelen Elise 01:44:05 55.44
174 (562) Verbeke Caroline 01:44:08 55.40
175 (563) Reyntens Kristien 01:44:19 55.28
176 (565) Vandenbulcke Emmy 01:44:30 55.15
177 (567) Eylenbosch Leen 01:44:41 55.02
178 (570) Verhelst Hilde 01:44:58 54.83
179 (571) Ickx Isabelle 01:45:06 54.74
180 (572) Van Caenegem Nele 01:45:07 54.73
181 (573) Francois Jill 01:45:12 54.67
182 (574) Villette Emily 01:45:13 54.66
183 (575) Decoster Leene 01:45:20 54.58
184 (576) Dehenau Anneleen 01:45:31 54.45
185 (578) Carlier Trui 01:45:34 54.42
186 (581) De Cabooter Nancy 01:45:51 54.22
187 (582) Stiernet Yseult 01:45:55 54.18
188 (584) Caessens Carine 01:46:19 53.90
189 (585) Daenekindt Sophie 01:46:32 53.75
190 (586) Jacques Annelies 01:46:39 53.67
191 (587) Boel Soen Jong 01:46:42 53.64
192 (589) Victoor Inge 01:47:17 53.24
193 (590) De Regge Melissa 01:47:34 53.04
194 (591) Struyf Hanne 01:47:38 53.00
195 (592) Spiessens Karen 01:48:14 52.58
196 (593) Vercaemer Catharine 01:48:24 52.47
197 (594) Jorens Noëmie 01:48:35 52.34
198 (595) Bellinkx Sarah 01:49:09 51.95
199 (596) Michel Stephanie 01:49:11 51.93
200 (597) Windels Ann 01:49:11 51.93
201 (598) De Clercq Els 01:49:44 51.55
202 (599) Baecke Myriam 01:50:17 51.18
203 (600) Dekyndt Katie 01:50:33 50.99
204 (601) Reynebeau Evelyne 01:51:15 50.51
205 (604) De Groote Johanna 01:51:28 50.36
206 (605) Declerck Joke 01:51:43 50.19
207 (606) Van Meenen Claudine 01:51:58 50.02
208 (607) Beirnaert Sophie 01:53:22 49.06
209 (609) De Wit Luut 01:53:38 48.87
210 (610) Hallynck Livia 01:53:50 48.74
211 (611) Legrand Gwenaëlle 01:53:52 48.71
212 (612) Leroy Charlotte 01:55:15 47.76
213 (613) Vanholder Inez 01:55:15 47.76
214 (614) De Wolf Ellen 01:55:39 47.49
215 (615) De Koker Isabel 01:56:13 47.10
216 (618) Lewyllie Hanne 01:57:12 46.42
217 (620) Vandesype Jana 01:57:53 45.95
218 (621) Dauwe Rut 01:58:25 45.59
219 (622) De Pooter Veerle 01:59:24 44.91
220 (623) Cocquyt Sofie 02:01:15 43.64
221 (624) Dierckens Sarah 02:03:02 42.42
222 (626) Barbieur Heidi 02:03:22 42.19
223 (628) Verkeyn Lobke 02:03:41 41.97
224 (629) Vertriest Greetje 02:05:20 40.84
225 (630) De Keyser Evelyne 02:09:27 38.01
226 (631) Dejonghe Sill 02:12:02 36.23
227 (632) Claeys Helene 02:14:11 34.75
228 (633) Depoortere Griet 02:15:23 33.43

Reacties

  • Nog geen reacties beschikbaar